Portada
METAR-TAF:

METAR-TAF

Aeroports :

Goldsboro, Carolina del Nord, Estats Units d'Amèrica

latitud: 35-27-38N, longitud: 077-57-54W, altitud: 40 m

Observació

L'informe es va fer fa 10 minuts, a les 22:55 UTC
Vent 5 kt del Nord/Nord-Est
Temperatura 7°C
Humitat 81%
Pressió 1025 hPa
Visibilitat: 16.1 km
Cel clar

METAR: KGWW 232255Z AUTO 03005KT 10SM CLR 07/04 A3026 RMK AO2 T00680035

Hora: 18:05 (23:05 UTC)


TAF: manca

Observacions i pronòstics meteorològics de més de 4000 aeroports (METAR i TAF).

Les estacions disponibles són els punts grocs i vermells al mapa.

Posi el ratolí al punt desitjat per veure el nom de l'estació.

Feu clic per veure les observacions i els pronòstics meteorològics.

Per canviar el mapa: feu clic els botons verds amb una creu de color negre per apropar; al botó verd amb un guió per allunyar la imatge; o en les fletxes verdes per a mapes adjacents.


METAR-TAF: